Meteo Giornale » Osservazioni meteo Kazakhstan » Pavlodar
ore: 20:00 - Osservazioni Meteo Pavlodar
Lat. 52° 12' N Lon. 77° 4' E Alt. 125 metri s.l.m.
9 °C
Sereno
Temp. 24 Ore
4 °C
14 °C
Nord
7.2 Km/h
Dew point 3 °C
Umidità 66 %
Visibilità 10 Km
Il sole sorge alle ore 05:03
Il sole tramonta alle ore 18:40
| Data e Ora | Cielo e Fenomeni | T °C | DP °C | Um. % | Pres. hPa | Vis. km | Vento km/h | |
|---|---|---|---|---|---|---|---|---|
| Ieri h: 20:00 | Sereno | 9 | 3 | 66 | 1015 | 10 | N 7.2 | |
| Ieri h: 19:30 | Sereno | 10 | 2 | 57 | 1015 | 10 | O 10.8 | |
| Ieri h: 19:00 | Sereno | 11 | 3 | 57 | 1015 | 10 | O 10.8 | |
| Ieri h: 18:30 | Sereno | 12 | 2 | 50 | 1014 | 10 | O 10.8 | |
| Ieri h: 18:00 | Sereno | 13 | 2 | 47 | 1014 | 10 | O/NO 10.8 | |
| Ieri h: 17:30 | Sereno | 14 | 1 | 41 | 1014 | 10 | O/NO 18 | |
| Ieri h: 17:00 | Sereno | 14 | 0 | 38 | 1014 | 10 | O/NO 25.2 | |
| Ieri h: 16:30 | Sereno | 13 | 1 | 43 | 1014 | 10 | N/NO 18 | |
| Ieri h: 16:00 | Molto Nuvoloso | 14 | 0 | 38 | 1014 | 10 | N/NO 10.8 | |
| Ieri h: 15:30 | Molto Nuvoloso | 14 | 1 | 41 | 1014 | 10 | O/NO 14.4 | |
| Ieri h: 15:00 | Molto Nuvoloso | 13 | 1 | 43 | 1013 | 10 | NO 14.4 | |
| Ieri h: 14:30 | Molto Nuvoloso | 13 | 1 | 43 | 1013 | 10 | NO 18 | |
| Ieri h: 14:00 | Molto Nuvoloso | 13 | 2 | 47 | 1013 | 10 | O/NO 14.4 | |
| Ieri h: 13:54 | Molto Nuvoloso | 13 | 2 | 47 | 1013 | 10 | O 10.8 | |
| Ieri h: 13:30 | Molto Nuvoloso | 13 | 2 | 47 | 1013 | 10 | NO 14.4 | |
| Ieri h: 13:00 | Molto Nuvoloso | 14 | 2 | 44 | 1013 | 10 | O 21.6 | |
| Ieri h: 12:45 | Molto Nuvoloso | 12 | 2 | 50 | 1013 | 10 | NO 21.6 | |
| Ieri h: 12:30 | Molto Nuvoloso | 13 | 2 | 47 | 1013 | 10 | O/NO 18 | |
| Ieri h: 12:00 | Molto Nuvoloso | 13 | 2 | 47 | 1014 | 10 | NO 21.6 | |
| Ieri h: 11:30 | Nuvoloso | 12 | 2 | 50 | 1014 | 10 | NO 14.4 | |
| Ieri h: 11:00 | Nuvoloso | 13 | 2 | 47 | 1014 | 10 | O/NO 14.4 | |
| Ieri h: 10:50 | Nuvoloso | 13 | 4 | 54 | 1014 | 10 | O/NO 18 | |
| Ieri h: 10:30 | Nuvoloso | 12 | 3 | 54 | 1014 | 10 | O/NO 21.6 | |
| Ieri h: 10:00 | Poco Nuvoloso | 12 | 2 | 50 | 1014 | 10 | NO 18 | |
| Ieri h: 09:30 | Sereno | 11 | 2 | 53 | 1014 | 10 | O/NO 21.6 | |
| Ieri h: 09:00 | Sereno | 10 | 2 | 57 | 1014 | 10 | O/NO 18 | |
| Ieri h: 08:30 | Sereno | 10 | 2 | 57 | 1014 | 10 | O/NO 18 | |
| Ieri h: 08:00 | Sereno | 9 | 2 | 61 | 1014 | 10 | O/NO 14.4 | |
| Ieri h: 07:30 | Sereno | 8 | 3 | 70 | 1014 | 10 | O/NO 10.8 | |
| Ieri h: 07:00 | Sereno | 7 | 3 | 75 | 1014 | 10 | O/NO 10.8 | |
| Ieri h: 06:30 | Sereno | 6 | 3 | 81 | 1014 | 10 | O/NO 14.4 | |
| Ieri h: 06:00 | Sereno | 4 | 2 | 86 | 1014 | 10 | O/NO 14.4 | |
| Ieri h: 05:30 | Sereno | 5 | 3 | 86 | 1014 | 10 | O/NO 14.4 | |
| Ieri h: 05:00 | Sereno | 5 | 3 | 86 | 1014 | 10 | O/NO 14.4 | |
| Ieri h: 04:30 | Sereno | 5 | 3 | 86 | 1014 | 10 | O/NO 14.4 | |
| Ieri h: 04:00 | Sereno | 5 | 3 | 86 | 1013 | 10 | O/NO 14.4 | |
| Ieri h: 03:30 | Sereno | 5 | 4 | 93 | 1013 | 10 | O/NO 14.4 | |
| Ieri h: 03:00 | Sereno | 6 | 4 | 86 | 1013 | 10 | O/NO 14.4 | |



